Theta_e
331 324 326 327 324 320 315 315 303 309 306 302 303 304 303 309 309 308 307 311 311 320 321 327 329 328 325 323 325 325 325 322 320 312 316 340 347 347 347 347 347 345 347 349 354 357 355 355 354 353 352 353 353 353 353 353 353 353 354 354 354 353 353 353 353 353 353 352 352 352 352 353 354 354 354 353 353 353 353 352 351 351 351 350 351 352 351 350 349 349 350 348 348 348 348 348 347
323 323 325 326 320 316 311 313 305 304 304 301 303 305 306 308 309 306 306 308 312 317 325 326 330 330 329 328 328 327 326 331 330 335 342 343 348 348 346 347 348 347 347 349 354 353 353 354 353 353 353 352 352 352 352 352 353 354 354 354 353 353 353 353 353 353 352 352 352 352 352 353 354 353 353 353 353 352 353 351 351 350 350 350 351 350 349 349 349 349 349 349 348 347 347 347 347
322 321 319 322 318 316 314 313 301 303 300 298 304 305 308 306 306 307 308 309 311 312 318 327 326 328 328 327 324 322 324 333 335 338 341 345 342 345 346 347 349 348 348 351 352 351 350 350 353 353 353 352 352 352 352 352 353 354 354 353 353 353 353 353 353 353 352 351 351 351 351 353 353 353 353 353 352 351 351 351 350 350 350 351 351 350 349 349 348 348 347 347 347 347 346 347 347
324 323 318 316 311 315 309 308 304 302 300 301 303 307 307 306 307 308 310 311 311 312 312 313 317 329 322 322 324 329 329 334 339 338 340 342 348 347 348 348 350 348 349 350 351 351 350 351 354 353 353 352 352 352 351 353 353 353 354 353 353 353 353 353 353 352 352 351 351 351 351 351 352 353 353 353 353 352 351 349 349 349 349 349 349 349 349 348 348 348 348 346 346 347 347 347 346
319 319 319 315 311 308 308 306 304 304 299 302 301 306 307 307 308 309 310 311 312 312 311 311 312 328 323 326 331 324 333 339 339 342 343 345 350 349 350 349 349 347 348 350 351 351 350 352 354 353 352 352 352 351 352 353 354 354 353 353 353 353 353 353 353 352 351 351 351 351 351 351 351 352 353 352 352 352 351 349 349 348 348 347 348 348 348 348 348 347 347 347 347 346 347 347 347
317 317 319 315 309 313 308 302 301 301 304 306 303 306 308 309 308 309 310 311 312 312 311 311 310 312 315 329 335 327 341 330 340 344 345 344 348 350 352 352 348 347 348 352 352 351 351 354 353 353 353 352 351 351 353 353 354 353 353 353 353 353 353 352 352 351 350 351 350 350 349 350 350 351 351 351 351 351 350 350 350 350 349 348 347 347 347 347 347 347 347 347 347 346 346 346 346
314 315 313 313 311 311 302 302 301 303 305 308 306 307 308 309 309 309 309 310 311 311 316 312 313 314 313 331 337 341 346 345 346 344 347 347 350 351 352 349 348 347 351 352 352 351 351 353 353 353 353 352 352 352 353 353 353 353 353 353 353 353 352 352 351 351 351 350 349 349 349 348 348 349 350 350 350 350 349 349 350 350 350 349 348 348 346 346 346 347 346 347 346 346 346 346 346
319 312 311 307 305 306 301 302 302 305 305 308 309 308 309 309 310 309 308 308 308 308 311 313 314 312 312 319 312 343 346 346 346 348 348 348 349 351 351 348 347 348 350 353 352 352 356 353 352 352 353 352 352 352 353 353 354 353 353 353 353 352 352 351 351 350 350 348 348 347 348 347 346 346 349 349 349 349 349 349 350 350 349 349 348 348 347 347 345 345 345 345 344 344 345 345 345
314 311 313 307 302 305 301 301 303 307 307 308 307 309 314 310 310 309 308 309 310 310 310 312 312 308 318 316 319 342 345 347 348 349 347 348 349 351 350 349 347 348 349 350 351 353 353 353 352 352 352 352 352 352 353 353 353 354 353 353 352 352 351 351 350 349 348 347 346 346 346 346 346 346 347 347 347 347 348 349 349 349 348 348 348 348 348 347 347 346 345 344 344 343 343 344 344
311 311 306 305 305 300 301 301 301 304 306 308 307 308 309 310 309 310 309 308 309 310 311 313 313 309 312 311 315 338 344 348 348 347 348 348 350 352 351 350 350 349 349 349 350 351 352 353 352 352 352 353 353 353 353 353 353 354 353 352 353 351 350 350 349 347 346 346 346 345 346 346 345 346 345 345 345 346 346 348 348 347 347 346 347 347 348 347 347 347 346 346 345 345 343 343 343
306 309 311 304 301 299 299 300 303 305 306 309 308 309 310 311 310 309 309 309 311 309 310 313 310 311 313 314 326 343 345 347 347 345 348 348 349 349 350 351 351 352 349 350 350 351 353 352 354 352 353 353 352 353 354 354 354 353 353 352 352 350 349 348 347 346 345 345 345 345 344 345 345 345 344 344 344 344 345 346 346 346 346 345 345 345 346 346 346 345 346 346 346 345 345 345 343
305 305 306 300 300 300 301 301 303 305 307 308 306 309 311 310 310 307 308 307 309 309 309 311 309 314 311 312 319 342 344 346 348 347 348 349 346 349 351 350 351 350 350 351 349 350 351 350 351 353 353 353 353 354 354 354 353 353 352 352 351 349 348 347 346 346 345 345 344 344 344 343 343 343 343 342 343 344 344 345 346 345 345 345 345 345 345 346 345 345 345 346 345 344 345 344 344
305 308 304 301 301 302 303 302 302 304 305 306 306 308 311 309 308 309 309 309 309 308 308 312 312 313 310 311 338 341 339 344 345 347 347 346 347 347 349 349 349 350 349 351 349 348 350 350 348 353 352 353 353 354 354 354 353 352 351 351 350 349 348 347 345 343 344 343 343 343 343 342 342 342 342 341 341 341 343 344 344 345 345 345 344 344 345 344 344 343 344 343 343 343 345 346 347
305 308 306 300 305 303 302 302 304 302 303 307 310 309 309 308 309 310 310 307 308 308 311 313 312 312 312 314 336 337 340 344 344 345 346 346 347 347 349 348 348 349 350 349 347 348 348 348 349 348 352 354 355 355 354 353 352 352 351 350 349 347 346 344 344 345 345 343 343 343 342 342 341 341 341 341 341 341 342 342 343 343 344 343 343 343 343 342 341 342 343 344 345 346 347 348 347
306 309 305 303 302 302 304 300 302 302 302 308 310 309 308 311 311 310 309 307 308 312 321 317 313 312 309 310 314 334 340 344 343 345 346 346 345 346 346 348 349 349 348 347 347 348 346 347 347 349 353 351 352 354 355 355 352 351 350 349 348 346 345 346 345 345 343 344 344 344 343 343 343 342 341 341 341 341 341 341 342 342 341 341 340 340 340 340 342 344 345 346 347 347 348 348 347
309 308 304 301 299 300 302 302 304 302 303 308 310 309 308 309 311 308 310 310 310 319 314 311 317 313 330 323 337 338 343 343 344 345 344 344 344 344 345 347 347 348 348 349 348 348 347 347 347 348 350 351 352 352 354 354 352 351 350 349 347 346 344 346 344 344 344 344 346 345 345 346 346 346 343 345 342 341 340 339 339 340 340 339 339 341 342 344 345 347 348 347 347 348 347 347 347
309 308 300 300 298 300 302 302 303 299 305 308 309 308 305 306 310 310 314 313 308 309 317 325 320 335 329 338 341 343 344 344 343 343 343 341 341 341 342 343 344 345 347 347 348 346 348 348 347 348 350 349 352 352 354 354 353 351 350 347 346 345 345 344 345 345 345 346 347 346 347 347 348 350 349 347 345 348 344 343 342 342 343 344 343 345 346 346 347 347 348 348 347 347 347 346 348
307 301 300 298 300 300 304 303 305 307 305 307 308 308 307 305 308 308 310 312 311 316 320 333 335 335 337 341 342 343 343 341 341 340 339 340 340 338 338 340 341 340 342 343 345 346 347 348 348 349 350 350 351 352 353 353 353 351 352 350 349 347 346 345 347 348 347 349 345 348 348 347 347 350 351 349 351 349 348 345 345 345 345 345 345 346 347 347 347 348 347 347 346 346 346 354 352
302 301 300 297 302 304 307 307 307 306 305 308 308 306 307 306 307 309 307 309 312 314 320 331 329 334 337 338 341 341 340 339 340 340 340 340 339 338 338 341 340 340 339 340 343 345 346 348 348 349 349 350 352 353 353 353 353 352 350 348 347 346 348 349 347 348 348 347 347 345 348 350 348 350 352 351 352 349 351 347 347 347 347 347 347 347 348 347 347 347 346 345 347 346 350 347 345
304 302 298 300 305 306 307 308 307 308 308 307 307 307 306 308 308 311 305 306 309 309 312 327 326 331 334 338 339 339 338 338 340 340 340 341 340 340 341 340 340 341 341 341 343 345 345 345 349 349 350 350 350 350 352 352 352 351 348 347 346 348 348 347 348 347 347 348 346 349 349 350 351 351 351 351 352 353 351 348 348 347 349 347 345 350 347 346 346 345 347 347 347 349 344 342 341
304 302 299 302 305 304 306 307 308 308 308 307 307 306 305 307 308 308 306 305 306 309 312 315 322 328 335 338 338 338 337 337 338 340 340 340 342 342 342 342 341 342 343 343 343 344 345 347 347 347 350 350 350 350 351 350 351 349 347 345 345 344 345 346 347 347 347 348 349 350 348 350 349 351 353 352 350 352 352 352 352 353 354 354 346 350 349 347 349 344 348 347 344 343 342 344 343
305 301 303 305 305 303 307 307 307 307 307 306 306 303 304 309 308 306 306 304 304 308 312 317 322 325 332 336 338 337 337 337 337 338 339 341 342 342 344 344 345 344 343 341 342 344 345 346 347 348 350 349 350 350 350 350 351 348 347 345 344 345 346 345 346 347 347 350 349 349 349 350 350 350 352 351 351 351 350 352 352 353 351 350 351 347 346 347 345 345 344 343 342 343 343 343 343
298 303 304 305 306 304 306 306 306 306 305 304 304 306 307 306 305 307 307 306 308 312 313 315 319 325 332 336 338 337 336 336 337 338 339 341 342 343 343 343 342 340 341 341 343 344 344 345 347 348 348 349 350 351 351 350 349 349 348 345 343 343 346 345 344 344 347 348 349 350 350 348 349 348 350 350 349 351 352 351 350 350 349 348 350 346 347 346 345 343 344 344 343 341 340 341 340
302 300 303 303 305 304 306 306 306 305 305 304 306 308 305 305 302 308 306 308 310 312 315 315 316 326 335 335 339 338 337 337 337 339 342 342 343 343 343 343 342 343 341 342 342 343 342 344 346 347 347 348 350 350 351 349 349 348 348 345 345 341 344 345 344 345 348 347 349 350 350 349 348 347 349 348 348 351 352 353 351 348 346 346 349 347 344 345 343 343 346 344 340 340 339 340 338
300 299 303 304 305 305 305 306 306 306 305 307 307 305 304 305 305 307 306 308 310 312 321 317 319 329 335 336 338 338 337 338 338 340 342 342 345 345 344 343 342 342 341 342 341 342 342 344 345 346 347 348 349 351 349 348 349 348 348 346 344 343 344 346 345 348 348 348 350 350 351 349 348 349 349 349 349 351 352 353 348 346 348 347 347 346 345 344 344 342 343 342 340 340 340 341 337
301 301 303 303 303 305 305 305 305 305 306 306 305 303 305 306 308 305 307 308 310 318 319 321 323 332 334 336 338 338 337 337 339 340 341 343 343 342 343 342 342 341 342 342 342 342 342 344 344 345 347 348 348 350 348 348 348 347 346 346 345 346 345 348 348 348 348 347 347 350 350 349 349 348 349 349 348 350 352 351 349 348 346 347 346 346 345 344 343 341 341 341 338 339 338 338 338
303 302 302 303 303 304 305 304 305 305 305 306 303 303 304 307 305 301 307 309 312 314 316 322 326 330 334 336 338 338 336 337 338 340 341 342 341 340 341 342 341 342 343 342 342 342 343 342 342 345 347 348 349 348 347 348 349 347 347 346 346 345 346 348 348 348 347 349 349 352 352 352 351 349 349 350 350 351 351 350 347 347 345 345 346 346 347 346 344 342 343 342 342 339 338 338 336
302 302 302 302 303 304 304 304 304 305 304 306 305 303 305 306 305 302 306 310 312 311 314 321 324 327 334 336 337 337 337 338 338 340 339 340 338 339 340 340 340 342 342 342 342 343 342 343 341 345 346 349 349 347 348 348 348 347 347 345 344 346 349 347 346 348 347 348 351 352 351 351 352 352 351 351 352 351 349 346 348 347 346 345 346 345 344 345 344 341 343 343 344 341 338 339 340
302 302 298 300 301 301 304 302 303 304 303 306 306 303 302 303 302 306 308 316 316 313 315 321 323 328 335 337 337 336 336 337 338 338 339 340 340 341 341 343 342 342 343 344 343 344 343 343 341 344 346 349 349 348 347 347 348 346 346 346 346 347 347 347 347 347 348 349 351 352 351 351 352 351 351 351 350 351 348 349 346 347 347 346 348 347 344 345 343 341 342 342 341 339 340 340 338
302 301 299 298 298 297 302 304 304 303 303 305 304 293 297 302 305 307 308 314 316 316 318 321 324 329 334 336 336 337 338 338 338 338 339 340 341 342 342 344 344 343 342 343 345 342 343 344 343 344 345 348 348 347 348 346 347 347 347 347 347 346 346 346 347 349 348 347 349 351 351 351 350 350 350 350 352 350 350 347 347 346 344 347 346 345 340 341 341 340 341 338 337 338 337 339 337
296 299 300 296 294 294 301 302 303 301 305 305 304 294 298 302 305 308 312 314 314 313 316 320 323 328 333 336 336 337 339 340 339 340 342 342 342 342 343 344 344 344 343 344 343 343 344 343 341 343 346 348 348 347 348 348 348 346 346 346 347 346 346 347 347 349 348 347 349 348 350 350 351 351 351 351 352 350 348 347 347 346 347 347 343 343 341 342 341 339 338 337 338 336 337 338 337
298 294 292 296 295 296 300 303 303 299 303 306 303 296 298 303 305 307 311 314 317 314 314 317 320 324 332 336 337 337 338 340 340 340 342 342 343 341 342 343 344 343 344 345 343 344 342 343 343 343 345 346 347 347 348 347 347 348 347 346 347 347 346 347 348 348 348 347 348 349 350 351 351 351 351 351 349 350 347 347 346 348 347 345 343 343 342 340 340 339 338 338 336 336 336 336 337
297 294 293 292 295 296 297 301 303 303 303 304 302 297 300 301 306 309 313 314 315 314 314 316 319 322 333 336 337 338 338 338 339 339 341 341 342 343 342 344 343 345 345 345 344 343 342 342 341 343 344 345 346 347 347 347 347 347 347 346 347 347 346 346 348 349 349 349 347 347 350 351 351 350 353 352 350 350 347 347 345 346 346 343 342 341 341 340 339 337 337 338 338 335 335 335 337
293 295 294 295 293 296 294 300 302 302 302 299 302 299 301 304 307 307 315 320 319 314 313 317 320 321 332 337 337 337 338 337 337 337 339 342 342 343 343 342 344 345 346 346 345 343 342 341 343 344 345 345 344 345 346 347 347 347 347 346 347 345 348 347 347 348 347 347 348 347 349 350 350 350 351 350 349 350 348 345 346 346 344 343 342 341 340 340 339 338 336 339 338 337 335 335 335
291 292 293 294 295 297 296 295 299 301 300 299 300 299 300 303 305 307 314 321 319 314 313 317 321 322 329 336 336 336 337 338 339 340 340 341 342 343 343 344 344 345 343 344 344 343 341 341 341 342 343 343 343 345 346 346 347 347 346 347 346 346 347 347 347 346 347 348 348 349 349 349 349 350 350 349 348 347 347 346 345 344 343 341 341 340 340 339 339 338 337 336 338 337 335 337 336
295 295 294 295 293 294 295 299 302 301 298 297 299 297 299 301 304 306 311 316 315 314 316 317 322 324 329 334 336 336 337 338 342 343 340 340 341 342 343 343 344 344 344 344 343 342 340 340 341 341 342 341 343 344 344 343 343 342 342 344 342 343 344 344 347 345 346 346 348 349 349 349 348 350 349 349 348 347 345 343 345 343 341 340 340 339 338 337 336 336 336 335 335 335 337 336 336
298 296 296 295 295 296 298 299 301 302 299 298 299 299 299 301 302 305 309 316 317 316 316 317 320 322 327 332 334 336 338 339 344 342 340 340 341 342 342 342 342 344 344 343 342 341 341 339 339 338 339 341 341 340 341 340 340 339 342 340 339 341 342 344 344 345 345 346 348 348 348 349 349 349 348 347 346 345 344 343 343 341 340 340 339 338 338 338 337 337 334 336 334 334 334 336 336
297 296 295 294 295 294 298 298 301 302 299 298 300 299 300 301 303 304 309 313 314 317 320 322 324 326 328 329 331 335 339 342 342 339 338 340 340 340 341 341 342 342 343 342 341 340 341 341 339 339 339 340 340 341 341 342 342 339 339 339 339 340 341 341 341 344 346 347 348 347 347 347 348 348 347 347 346 344 343 341 341 339 338 339 337 338 336 336 336 336 335 332 334 332 333 334 334
296 295 294 294 295 297 299 299 301 301 299 298 300 298 299 301 303 305 307 311 313 316 318 321 324 326 327 327 329 334 337 339 338 337 338 337 339 339 339 340 342 343 343 341 342 341 340 339 339 339 339 339 339 341 342 341 342 343 341 340 340 341 344 345 343 344 346 346 347 347 346 347 347 347 346 345 344 344 342 342 340 338 339 337 336 335 336 335 335 334 333 332 330 333 332 333 333
295 295 294 292 296 294 292 297 299 300 299 298 300 298 299 302 304 305 307 311 314 315 316 319 321 323 325 328 331 334 336 337 336 334 334 335 337 337 338 338 340 341 342 341 341 339 339 338 339 339 340 340 340 341 342 344 344 344 344 343 344 343 341 343 344 345 345 345 344 346 346 346 346 344 344 343 344 343 342 339 338 337 337 338 336 333 333 332 334 333 333 332 332 328 327 329 331
296 295 295 294 295 295 296 295 298 299 299 300 300 298 298 300 302 303 308 311 311 313 317 320 325 329 329 333 335 336 336 337 337 336 335 334 334 335 336 338 340 340 341 340 340 338 339 340 340 341 340 340 340 341 342 342 342 342 341 342 343 342 342 340 341 340 342 342 342 343 345 344 344 343 343 342 341 341 340 339 337 337 336 337 335 333 332 332 331 332 332 332 332 330 327 329 330
293 296 296 296 297 296 296 298 296 294 294 297 298 291 292 299 302 301 305 307 311 318 319 320 322 326 329 330 332 335 337 338 337 337 336 335 333 334 336 338 338 339 340 341 341 340 341 340 342 342 340 340 340 341 342 340 338 338 337 336 335 336 335 335 335 336 338 339 339 343 345 343 342 342 341 340 340 339 339 338 338 335 337 334 333 332 332 331 332 333 332 333 331 332 330 326 326
292 293 298 298 297 297 297 296 295 291 289 295 299 291 289 298 298 301 303 305 307 315 318 319 320 322 324 327 328 331 333 335 337 338 337 335 333 333 335 336 338 339 340 342 342 342 342 341 342 341 340 340 342 341 340 339 337 338 338 338 337 337 334 336 339 341 340 339 340 341 343 343 342 341 341 340 339 338 338 337 337 336 334 333 332 332 331 331 332 332 333 331 329 330 330 324 325
291 298 298 298 297 296 296 296 295 294 298 299 298 296 292 293 297 302 303 305 305 308 315 317 318 321 323 326 328 330 331 334 335 335 335 335 334 333 333 336 338 339 341 341 342 343 342 341 342 341 341 340 343 342 337 337 337 338 339 341 339 338 337 338 338 339 341 340 338 339 341 340 340 340 340 338 338 337 337 336 336 335 333 333 331 330 330 332 333 333 332 332 331 330 329 325 323
295 298 298 296 297 296 297 296 295 297 296 292 295 297 292 293 300 303 306 303 302 305 311 313 316 319 323 325 328 330 333 335 335 334 334 334 334 333 334 335 338 340 340 340 340 342 341 339 336 338 340 340 342 342 340 340 342 342 340 340 339 340 341 339 339 338 338 339 339 339 339 339 339 339 338 337 337 336 335 335 334 333 332 332 331 331 332 332 331 331 331 329 329 327 327 327 324
298 299 299 298 298 298 297 295 295 295 293 289 293 295 290 292 302 301 305 302 301 303 307 309 312 316 320 325 329 331 333 335 335 334 334 335 335 334 335 337 338 339 341 342 341 339 331 332 333 335 338 341 340 341 341 340 339 338 340 342 340 338 338 338 338 336 336 338 337 337 337 337 337 336 338 337 336 335 334 334 333 332 332 331 330 331 331 330 329 329 329 329 328 326 326 325 324
300 299 297 296 296 296 297 297 296 294 287 291 295 295 293 288 296 300 300 299 302 304 306 309 311 316 321 326 328 330 332 334 334 333 333 334 336 335 335 335 336 339 341 342 341 335 331 331 334 333 335 340 339 339 340 338 339 339 338 340 340 337 337 337 335 335 335 337 335 335 335 336 336 335 335 336 335 334 334 334 332 331 332 331 331 331 329 328 328 328 327 327 327 326 324 324 324
298 296 294 294 293 296 294 294 296 287 285 292 296 296 295 287 294 299 305 305 305 306 305 307 310 313 314 320 325 328 331 333 333 332 332 333 334 334 334 334 335 338 339 339 337 330 331 331 335 335 336 337 338 338 338 336 338 338 337 338 340 337 335 335 335 334 335 335 335 335 335 335 335 334 333 333 334 333 333 331 331 331 330 330 330 329 329 328 327 327 326 325 324 325 324 323 323
296 295 294 289 286 287 284 289 284 285 286 293 296 297 292 291 298 303 305 305 305 307 308 310 311 310 313 317 323 327 330 331 332 331 331 332 332 332 332 333 335 337 336 337 333 331 332 332 333 332 333 336 338 338 336 335 338 337 334 334 336 337 337 336 336 335 336 335 335 335 334 333 333 332 332 332 332 332 331 331 331 330 329 329 328 327 327 326 325 324 323 322 322 321 321 322 319
294 293 292 288 284 282 280 285 287 288 292 295 295 297 291 297 298 302 304 307 307 308 310 309 309 311 313 315 323 327 330 331 331 331 331 332 332 333 334 334 334 335 336 336 333 333 334 335 336 334 333 336 335 336 335 335 336 336 336 336 336 336 337 338 339 337 336 336 336 334 333 333 332 333 332 331 331 331 331 331 330 329 329 328 327 326 326 324 324 322 321 321 320 321 321 320 320
293 297 294 292 291 285 280 285 281 284 288 291 296 291 289 291 295 304 305 307 309 310 311 311 312 316 321 322 326 328 330 331 330 331 330 331 333 333 333 334 335 335 336 335 332 332 334 335 335 333 332 335 334 334 334 334 334 335 337 336 337 337 338 338 337 336 336 336 336 335 334 333 333 333 331 331 331 331 330 330 330 329 328 326 326 325 324 323 322 320 320 321 320 320 319 318 318
295 296 297 293 292 296 287 289 290 289 289 288 290 289 295 295 304 306 308 307 307 308 309 311 313 317 322 323 324 327 329 329 330 330 331 332 333 333 334 335 336 336 335 334 333 333 333 333 337 335 332 334 335 334 334 334 335 334 334 334 337 338 337 335 336 336 336 337 336 335 333 334 334 333 332 331 330 330 329 328 327 327 326 325 324 323 323 322 321 319 318 319 318 319 318 317 316
293 294 289 293 300 296 290 289 294 292 290 286 292 293 297 302 302 304 304 304 305 308 309 311 313 316 320 321 323 326 328 328 330 330 331 332 333 333 334 335 335 335 334 334 333 333 334 334 336 334 333 335 335 336 336 335 336 334 334 335 336 337 336 336 335 335 337 337 336 335 334 334 334 333 331 330 329 329 328 328 326 325 325 324 323 322 321 320 320 319 318 318 317 317 317 315 315
295 289 293 299 301 299 293 285 286 287 284 286 293 289 292 292 290 302 302 303 304 307 309 311 316 320 320 321 324 327 328 329 331 332 333 333 333 333 333 335 336 335 335 334 332 333 335 337 335 334 333 333 335 336 335 335 335 335 334 335 336 335 335 336 336 336 336 334 334 336 336 333 332 331 330 329 329 328 327 326 325 324 324 323 322 321 320 319 319 317 318 317 316 316 315 315 314
296 294 301 293 286 287 293 289 281 282 282 285 290 292 292 293 296 301 301 302 303 306 310 313 317 319 320 322 325 328 330 330 330 331 332 332 332 332 333 334 334 335 336 335 333 334 336 337 335 335 333 333 334 336 335 336 337 336 335 336 335 335 336 336 336 336 335 334 334 335 335 334 333 331 329 329 328 327 326 325 324 323 323 322 321 320 319 318 317 316 316 315 316 315 314 313 314
299 300 296 299 296 292 289 290 292 290 283 284 287 291 288 296 298 302 302 304 305 306 313 314 316 320 322 324 327 328 329 330 329 330 330 331 332 332 333 333 334 335 335 335 334 335 335 336 336 336 335 335 334 334 335 335 336 336 336 336 336 336 335 334 335 335 334 333 334 334 334 333 331 330 329 328 327 326 325 324 323 322 321 321 320 319 319 317 317 315 315 314 313 313 312 312 312
292 293 292 294 295 298 296 296 292 289 286 285 286 285 291 298 302 302 303 306 307 308 313 315 317 322 324 327 328 328 329 329 329 330 330 330 331 332 334 335 336 336 336 336 333 333 334 336 336 334 332 334 334 335 334 336 336 335 335 335 336 336 335 335 335 335 335 335 335 335 334 333 331 330 329 327 326 326 325 323 322 322 320 320 319 318 318 317 315 314 313 313 312 312 311 311 311
293 293 292 293 292 290 287 286 295 294 290 286 285 285 295 300 303 304 304 307 311 313 312 316 321 324 326 329 329 330 329 330 329 329 329 330 331 333 334 334 336 335 336 335 334 330 328 331 333 332 333 333 334 334 334 335 335 335 335 336 336 337 335 334 333 333 334 334 334 334 333 332 331 329 329 327 326 326 325 323 322 321 320 319 318 316 316 315 313 313 313 313 313 311 311 311 311
Wind_Speed
10 6 7 6 6 6 7 4 8 5 4 7 4 6 7 2 1 1 6 5 4 7 8 6 1 3 4 6 6 6 6 5 1 8 4 3 1 5 10 7 12 16 16 14 15 16 17 15 14 14 15 15 14 15 15 16 15 15 15 14 15 14 14 15 14 13 13 13 12 11 11 11 11 12 12 13 12 12 13 13 14 13 13 13 13 13 12 12 11 11 11 10 9 9 9 9 8
8 8 8 6 6 7 3 5 7 7 6 7 7 2 5 3 7 4 6 8 7 7 7 6 1 1 1 2 3 3 5 6 5 4 4 2 6 8 9 10 14 16 15 13 15 15 16 16 14 14 15 16 15 15 15 15 15 15 15 15 15 14 14 14 14 14 13 13 12 11 11 11 12 11 12 13 12 12 11 13 13 13 13 12 13 12 12 11 11 10 9 9 8 8 8 8 7
9 8 5 6 6 5 5 6 8 7 7 8 5 4 6 5 0 4 7 7 6 8 7 3 4 1 5 3 3 3 5 2 3 4 5 8 8 7 9 13 14 15 15 13 13 15 14 16 14 14 14 15 15 15 15 16 15 15 15 14 14 14 14 14 14 13 13 13 12 12 11 12 11 11 11 11 11 12 12 13 13 13 12 12 12 11 11 11 10 9 8 8 8 7 7 7 6
8 5 6 4 5 2 7 4 9 9 8 7 6 6 3 0 3 4 5 7 6 7 7 4 5 5 5 5 3 5 2 4 4 3 4 6 1 11 10 14 14 13 12 11 13 14 13 17 14 13 14 15 15 14 15 15 14 14 14 13 13 13 13 13 13 13 13 13 13 12 10 9 10 10 11 11 10 11 12 12 13 13 13 12 11 11 10 10 9 9 8 8 7 7 7 7 6
7 4 4 6 6 7 4 5 7 6 10 6 7 8 2 1 3 5 6 7 7 6 6 6 7 6 3 6 3 4 5 5 4 1 5 5 9 11 13 15 14 13 13 13 13 13 13 20 13 13 13 14 15 14 14 14 13 13 13 13 13 13 13 12 13 13 13 12 12 12 11 9 9 9 11 11 11 11 12 11 12 12 12 12 11 10 10 9 9 9 8 8 7 7 7 6 6
6 5 3 5 5 6 5 8 9 12 11 8 7 2 4 2 5 6 8 8 7 4 4 4 7 6 2 4 3 3 5 2 4 2 4 7 11 12 14 14 13 13 13 12 13 11 13 19 15 13 12 13 15 14 14 14 13 13 12 12 12 12 12 12 12 12 12 12 11 11 11 10 9 10 10 10 10 10 10 10 11 11 12 11 11 10 10 10 9 9 9 8 8 8 7 6 6
3 5 5 5 3 5 9 10 11 10 10 11 9 7 6 4 4 7 8 8 3 4 4 5 6 6 9 5 4 3 5 4 1 5 1 12 12 12 13 13 14 14 13 12 11 11 16 17 14 13 12 13 14 14 14 14 14 12 12 13 12 13 12 12 11 11 11 11 10 10 10 10 10 9 9 9 9 9 9 9 10 11 11 10 10 10 9 9 9 9 8 8 8 7 7 6 5
4 7 3 7 7 5 11 12 13 10 9 9 7 7 7 7 6 7 7 7 6 9 6 3 5 7 2 3 6 7 5 3 4 4 12 12 12 12 12 13 15 14 13 11 10 10 19 16 14 13 13 13 15 15 14 14 13 12 12 12 12 12 12 12 11 10 10 10 10 10 10 9 9 9 8 8 8 8 8 9 9 9 10 10 9 9 9 8 8 8 7 7 6 6 6 5 4
5 7 1 9 12 7 10 13 11 11 13 5 7 6 8 10 9 9 9 7 8 8 7 7 7 9 4 4 0 7 6 5 6 10 12 13 13 12 9 12 14 14 13 12 10 12 15 16 13 12 13 15 14 15 14 14 13 12 12 12 11 11 11 11 11 10 9 9 9 9 9 9 9 8 8 7 7 7 7 8 8 8 8 9 9 8 8 8 8 7 7 6 5 5 4 3 2
6 7 7 8 9 14 12 12 13 13 13 12 13 10 7 4 7 8 9 10 8 8 8 6 7 11 11 10 1 7 6 7 9 11 12 13 13 10 10 11 12 16 13 12 11 13 12 16 12 12 12 13 13 14 13 12 13 12 12 11 9 9 10 10 10 9 9 8 8 9 8 8 8 8 7 7 7 6 6 6 6 6 6 7 7 7 7 7 7 6 5 5 4 4 3 2 2
8 7 6 9 12 13 14 12 13 12 14 9 11 9 8 7 8 10 9 11 8 9 10 3 10 11 8 7 2 5 6 7 9 11 12 12 12 11 10 10 12 13 14 13 13 13 13 15 16 11 12 11 12 12 11 11 11 10 11 10 9 9 9 9 9 9 8 8 8 8 8 7 7 7 6 6 7 6 5 5 6 5 5 5 6 6 5 6 5 4 4 3 3 3 2 1 1
10 8 7 13 14 13 13 14 15 14 14 11 9 8 6 8 7 10 11 12 8 8 9 3 4 6 9 8 3 6 8 6 8 9 10 12 11 11 10 9 11 12 14 13 14 13 14 14 14 14 11 11 11 11 11 11 10 11 12 11 10 9 8 8 8 8 8 8 7 7 7 6 6 6 5 6 6 5 5 5 5 4 3 4 4 4 4 4 4 3 3 3 2 2 1 0 0
11 9 11 12 14 14 15 16 14 15 14 13 7 7 6 7 9 11 12 12 8 10 10 7 9 7 8 8 6 7 7 7 8 9 11 11 11 11 10 10 11 12 13 13 14 14 15 14 13 14 14 12 11 11 11 11 12 11 12 11 11 10 9 8 8 8 8 8 8 7 7 6 6 6 5 5 5 5 4 4 4 3 2 2 2 2 2 3 3 3 3 3 2 2 1 1 0
11 11 10 14 13 16 16 13 14 15 13 11 8 6 8 8 10 11 10 10 11 10 5 2 7 6 12 8 5 6 7 10 10 11 10 11 11 11 11 10 11 12 13 13 13 13 14 15 13 14 15 13 13 13 13 13 12 12 12 12 12 10 9 9 9 9 9 8 8 8 7 7 7 6 5 5 5 4 4 4 4 3 2 2 1 1 1 2 2 2 3 2 3 3 3 3 3
11 9 10 13 14 15 16 14 14 15 14 10 9 8 7 9 10 7 9 10 12 4 2 5 6 5 3 7 2 4 10 12 11 12 11 11 12 11 11 10 10 11 12 12 12 13 13 14 14 13 13 13 13 11 11 13 14 13 13 12 12 10 9 9 10 9 9 9 8 8 8 8 7 7 6 5 5 5 4 4 3 2 2 2 1 0 1 1 1 2 2 3 4 4 4 4 4
9 8 10 14 17 18 14 15 17 17 13 9 4 7 9 7 8 10 7 8 6 3 3 5 8 5 6 7 8 6 15 14 12 12 12 13 13 11 11 10 10 10 10 10 10 11 12 13 12 12 12 13 12 11 12 13 14 13 12 13 12 11 10 10 10 9 9 8 8 8 9 9 8 7 8 7 6 5 4 1 5 3 2 2 2 1 1 1 2 2 3 4 4 4 5 5 5
8 8 13 14 18 18 15 14 14 15 13 14 4 8 9 9 7 8 2 5 11 8 7 3 2 2 4 5 5 12 14 13 13 14 14 13 12 11 10 9 9 10 8 10 10 11 12 12 13 11 13 14 13 12 11 12 13 14 12 12 11 11 10 10 10 10 9 8 8 6 6 7 8 7 8 7 9 6 6 4 4 4 3 2 2 1 1 2 3 3 4 4 5 4 6 7 6
9 12 14 18 16 20 16 17 14 13 12 16 13 9 10 10 7 7 6 9 10 5 7 5 3 1 2 5 6 11 13 14 14 16 15 14 12 10 10 10 10 10 10 10 11 11 12 12 13 13 12 14 12 11 9 9 11 12 10 10 9 10 10 11 10 9 9 8 7 7 5 6 5 6 6 8 7 8 7 4 4 4 3 2 2 2 1 2 3 3 4 4 5 7 8 6 6
13 12 14 19 16 15 17 15 16 14 15 17 11 3 7 8 8 7 9 10 10 9 9 7 7 3 3 3 8 10 12 13 15 16 17 17 13 14 11 10 11 11 11 11 11 13 12 11 12 12 13 13 13 12 10 10 11 9 10 9 8 9 10 10 8 8 8 8 7 6 5 5 5 6 5 4 5 7 7 5 3 4 5 3 4 3 3 2 3 4 4 5 6 9 8 3 3
16 13 16 18 16 16 16 17 16 16 16 16 18 4 7 9 10 7 10 13 11 13 9 9 9 8 8 9 9 11 12 14 15 15 17 16 14 14 12 12 12 12 12 12 11 11 12 11 13 12 13 13 12 9 9 10 10 9 8 8 7 7 8 7 8 7 7 7 6 5 5 5 4 4 5 5 8 7 7 7 5 5 6 6 4 7 8 5 6 8 6 7 10 6 3 3 5
12 15 16 14 14 17 14 15 15 14 10 15 16 4 6 8 10 8 10 12 13 11 12 8 7 8 9 10 11 10 13 14 16 16 16 17 14 12 12 11 10 11 12 11 11 11 13 12 12 12 13 13 12 10 10 9 10 9 8 7 7 7 7 7 7 7 7 7 6 6 6 5 5 5 5 5 4 4 5 6 6 5 4 4 7 1 2 3 6 1 4 7 3 3 3 3 3
10 18 16 13 12 16 12 12 9 10 8 13 11 10 9 6 8 10 11 12 10 11 7 4 3 5 10 13 13 12 13 15 16 17 17 17 17 14 12 12 11 11 10 11 12 11 13 13 13 12 12 13 12 10 10 10 10 9 8 7 7 6 7 7 7 6 7 7 6 5 6 5 5 5 4 4 4 3 3 3 2 2 2 2 2 0 1 2 2 1 2 4 3 4 4 3 4
14 13 16 16 10 11 10 9 12 11 10 15 14 11 7 8 9 10 11 13 9 9 4 2 3 4 8 10 13 13 13 14 15 16 16 16 16 14 14 14 12 12 11 11 11 11 11 12 13 12 12 12 13 11 10 10 9 8 8 7 7 7 6 7 7 7 7 6 6 6 6 5 4 4 4 4 3 3 3 2 2 2 1 1 0 1 1 2 3 3 3 3 4 3 4 4 3
16 12 14 17 11 13 10 10 10 12 14 15 13 8 11 11 13 9 12 11 12 3 1 5 6 4 8 12 13 13 14 15 15 15 15 15 14 14 14 13 12 11 11 10 11 10 12 13 13 13 12 12 11 11 10 9 9 9 8 7 7 7 7 7 6 6 7 7 6 5 5 5 5 4 4 4 3 2 2 1 1 1 1 1 2 2 2 3 3 3 4 4 4 4 4 4 5
16 16 12 14 13 13 11 9 11 12 14 12 11 11 12 13 11 10 12 13 12 4 3 6 7 6 10 12 13 13 13 14 14 13 12 13 12 11 12 11 13 10 11 11 11 11 13 12 13 13 12 13 12 11 11 9 9 9 9 8 7 9 7 6 6 6 6 6 6 6 5 4 4 3 3 3 2 2 2 2 1 1 2 2 2 2 3 3 3 3 4 5 4 5 4 4 5
16 16 9 10 13 15 14 9 10 12 9 12 12 15 14 14 11 15 13 13 11 3 7 7 6 9 11 12 13 13 13 14 13 14 14 13 12 14 13 12 10 12 12 12 12 11 12 13 14 14 13 13 11 11 9 9 9 9 9 8 7 8 7 6 7 7 6 6 6 5 5 4 3 3 3 3 2 2 2 2 1 2 2 2 2 3 3 3 4 4 5 5 6 6 5 4 5
14 17 14 11 11 14 15 14 12 11 11 11 15 15 15 15 11 11 16 17 9 9 10 8 8 10 11 10 11 11 12 14 14 12 13 13 12 13 13 13 12 12 12 13 12 12 11 13 13 14 13 13 11 11 10 9 9 9 9 8 8 8 7 7 7 6 6 6 6 6 5 4 3 3 2 3 2 2 2 1 1 2 2 3 2 2 3 3 3 3 4 5 6 6 5 4 4
2 15 15 13 11 12 12 15 15 11 12 12 12 14 12 13 12 13 10 12 11 14 13 11 9 9 10 10 11 11 11 12 12 13 16 15 13 13 14 13 12 12 13 13 11 10 13 14 14 14 13 13 12 11 10 10 9 9 9 8 8 8 8 7 7 6 6 5 5 5 4 4 4 3 2 2 2 1 2 1 2 2 3 3 4 4 3 4 3 4 4 4 5 5 5 4 4
8 13 15 16 14 13 14 15 16 16 13 14 11 11 15 15 16 14 12 7 9 13 14 12 11 9 9 10 10 10 11 12 13 13 14 13 12 11 14 13 12 12 11 13 11 12 13 13 13 14 14 13 12 12 10 9 9 9 9 8 8 8 8 8 7 7 5 5 5 4 4 5 4 4 3 2 1 2 1 2 2 2 3 4 4 4 4 3 3 3 4 4 4 5 4 3 4
10 10 11 13 15 16 17 13 14 14 12 12 12 12 15 19 17 14 15 10 10 11 12 11 9 8 8 10 10 10 10 12 13 13 12 13 12 11 13 13 13 12 11 11 11 12 11 10 10 11 13 13 12 11 10 9 9 9 8 8 7 8 8 7 7 6 6 5 5 5 4 5 4 3 3 2 1 1 2 2 2 2 4 3 2 3 4 4 4 5 4 5 4 4 4 3 4
14 13 11 12 13 15 19 17 17 15 12 13 17 14 12 15 18 17 12 12 13 13 13 12 10 9 9 10 10 10 11 10 11 12 12 12 12 11 13 13 14 13 10 10 12 13 12 11 10 10 12 13 12 11 10 9 9 9 8 8 8 8 8 7 6 6 6 5 5 5 4 4 4 4 3 2 1 1 2 2 1 3 3 3 3 4 4 3 4 5 5 6 5 3 3 3 3
12 12 15 13 14 11 18 20 20 18 14 16 14 13 13 8 10 18 15 13 12 13 14 13 12 10 10 9 10 10 9 10 10 11 11 11 12 11 13 14 14 12 10 11 12 12 13 12 12 12 14 14 13 12 10 10 9 9 8 8 8 9 8 7 6 6 5 5 4 4 5 5 4 4 3 2 1 1 1 2 1 3 3 3 4 4 4 4 4 4 5 5 5 5 4 4 4
14 16 13 16 14 10 11 20 20 21 14 17 19 9 9 12 7 12 14 15 14 13 14 14 13 12 10 9 9 8 9 10 10 11 11 11 11 11 11 12 13 12 10 12 12 13 13 12 12 12 14 14 13 12 11 10 9 9 9 9 9 9 7 6 6 5 5 5 4 4 5 4 4 4 3 2 1 2 2 2 2 3 4 5 3 4 4 3 4 4 4 4 5 5 4 4 4
14 15 13 15 18 14 10 15 17 21 19 15 19 15 10 4 10 12 13 13 14 14 15 13 12 11 11 9 9 9 9 10 11 12 12 12 10 11 10 12 13 12 10 12 12 12 12 12 11 10 12 13 11 11 11 10 9 9 9 8 8 7 6 5 5 5 5 5 4 4 4 4 4 4 3 3 2 2 2 1 2 3 3 3 3 3 3 3 4 4 4 4 5 5 5 5 5
16 15 14 14 17 18 11 12 16 20 23 18 17 19 19 11 8 10 13 13 14 15 14 13 13 12 11 9 9 11 10 10 10 11 12 11 10 10 10 11 12 13 11 13 12 12 11 10 9 9 11 12 11 11 10 10 10 10 8 8 8 7 6 5 4 4 4 4 4 4 4 3 3 4 3 3 2 3 2 2 2 2 3 2 3 3 3 4 4 4 5 5 4 4 5 5 5
16 18 15 11 12 16 15 11 15 20 20 20 19 17 20 20 14 10 12 14 14 14 14 12 12 11 11 10 9 10 9 9 7 9 11 11 11 11 9 9 10 11 11 12 13 12 11 10 9 9 10 11 10 10 10 9 9 9 9 8 8 7 6 6 5 5 4 5 4 4 4 4 4 3 3 3 3 2 2 2 3 2 3 3 3 4 4 5 5 5 5 5 6 4 4 5 5
16 17 16 13 13 13 15 13 14 19 16 19 18 18 20 20 19 14 11 12 14 14 14 12 12 12 11 10 10 9 8 7 8 10 10 11 12 11 9 10 11 12 12 12 12 12 12 11 11 12 11 12 10 10 10 10 10 9 9 9 8 7 7 7 5 4 5 4 4 4 4 3 3 4 3 3 3 2 2 3 2 3 3 3 3 4 5 5 5 4 4 2 4 5 4 5 5
14 16 16 13 15 12 15 15 13 15 14 14 17 18 20 19 18 16 14 13 14 14 14 13 12 12 10 11 11 10 7 6 9 9 10 11 11 12 11 10 11 13 12 12 13 12 13 12 12 12 11 12 12 11 10 9 9 9 9 9 8 8 8 7 6 6 5 4 4 4 4 4 4 3 3 3 3 2 2 2 3 3 3 4 4 4 4 4 5 5 4 4 2 4 4 6 6
15 13 14 13 13 11 11 14 13 13 13 10 16 17 16 18 17 15 16 15 12 13 14 13 14 13 11 11 11 10 8 8 9 10 10 10 12 13 12 10 10 11 11 13 14 14 13 13 12 13 13 13 13 13 11 10 9 8 8 8 8 8 7 6 7 6 5 4 4 4 4 4 5 4 3 3 2 2 2 2 3 3 4 3 3 3 4 4 4 4 5 5 4 2 2 5 7
13 13 13 14 13 14 10 14 15 13 11 10 13 15 12 15 16 15 14 14 13 14 14 13 12 13 12 12 10 9 10 10 11 12 12 11 12 12 13 12 11 11 11 12 13 14 12 13 13 14 13 13 12 13 10 10 10 8 7 8 8 8 7 6 6 6 5 5 5 4 4 4 4 4 4 3 2 2 3 3 3 3 3 3 3 3 3 4 4 4 4 4 5 3 3 5 7
13 15 13 13 15 15 9 12 13 12 13 10 8 10 11 13 11 11 12 13 13 13 12 12 10 9 9 9 8 8 10 10 10 12 12 12 13 14 15 14 12 12 12 12 13 14 12 15 15 15 13 13 11 11 11 10 10 9 8 9 8 8 6 6 7 7 6 5 5 5 5 4 4 3 3 2 3 3 2 3 3 3 4 4 3 3 4 4 5 4 5 4 5 5 3 3 5
13 15 14 13 13 14 11 12 16 11 11 13 13 10 13 14 17 16 13 12 13 11 12 13 13 13 12 11 11 10 9 8 10 11 12 13 12 13 13 14 14 14 13 12 13 14 15 14 14 13 11 12 12 13 12 10 9 10 11 9 9 8 9 8 9 8 7 7 6 5 5 4 4 4 3 2 3 3 3 3 3 3 4 4 4 4 4 3 4 4 4 4 3 4 4 3 3
12 13 13 13 12 14 10 15 14 12 12 15 16 14 8 12 16 16 15 16 16 13 13 14 13 13 13 12 12 11 11 10 9 9 11 13 13 13 15 15 15 14 13 10 13 14 15 14 14 14 12 12 12 13 13 9 11 10 11 11 10 9 8 7 7 7 7 6 6 6 6 5 5 4 3 3 3 3 3 3 4 4 4 4 4 4 4 4 4 4 4 4 4 4 3 4 4
11 14 14 8 13 16 14 13 13 8 7 9 19 14 10 11 14 15 16 16 18 16 14 15 14 14 14 14 13 11 10 10 10 11 12 12 13 14 16 15 14 14 11 11 12 12 14 14 14 12 10 11 11 13 13 11 10 9 11 11 10 8 8 8 8 7 7 6 6 7 7 5 5 4 3 3 3 3 4 4 4 4 4 4 4 4 4 4 3 4 4 4 4 4 5 4 4
8 16 17 12 12 13 14 12 11 10 9 9 13 17 12 10 7 14 17 16 18 18 17 18 18 17 15 15 12 11 10 10 11 11 13 13 14 15 14 15 15 14 13 14 13 12 10 13 10 9 10 11 11 15 11 10 8 8 10 10 10 7 7 7 6 7 7 8 9 7 7 6 5 4 4 4 3 4 4 4 4 4 4 4 4 5 4 4 5 5 4 4 5 5 5 4 4
10 14 14 11 10 11 12 10 11 8 5 11 15 18 13 12 9 10 13 15 17 19 21 20 18 16 15 13 14 13 11 10 10 11 11 12 12 14 15 14 14 13 12 12 13 9 13 8 9 6 8 8 9 14 12 11 10 7 6 8 10 9 6 6 8 9 8 8 9 9 7 7 6 5 5 4 4 4 4 5 5 5 5 5 5 5 4 5 5 5 5 5 5 5 5 5 5
14 14 14 11 9 9 8 8 10 9 11 13 14 19 15 11 13 12 13 15 18 16 15 16 16 16 16 15 14 13 11 11 10 11 12 12 13 13 14 15 15 13 10 9 11 12 14 12 12 12 9 7 9 11 11 10 9 8 7 9 10 9 9 8 8 10 9 10 10 9 8 7 6 6 5 5 5 5 5 5 5 5 5 4 4 4 4 5 4 4 5 6 5 5 5 5 6
15 12 13 12 9 8 8 7 5 8 10 13 15 16 19 13 10 12 13 16 16 14 16 17 17 18 16 14 13 13 13 12 12 12 12 12 12 13 14 15 15 14 12 10 10 12 11 15 16 16 13 11 9 11 10 9 6 6 5 5 7 9 11 9 11 12 10 11 10 9 8 8 7 7 6 5 5 5 6 5 5 5 5 5 4 4 4 4 4 3 4 4 5 5 5 5 6
14 13 14 14 11 8 10 10 12 12 8 11 14 13 13 17 7 5 13 16 15 15 13 13 16 17 17 16 15 13 13 13 13 12 12 12 13 14 16 16 14 12 12 13 15 15 15 17 17 18 15 12 8 11 11 10 10 8 7 6 7 6 10 11 11 11 11 10 9 9 8 8 8 7 6 6 6 7 6 6 5 5 5 5 5 5 5 5 4 4 5 6 6 6 6 6 7
17 17 16 15 13 12 12 13 7 7 10 3 10 14 12 6 14 10 6 11 15 14 14 12 12 15 17 16 14 12 13 13 13 13 13 13 13 14 15 14 13 11 12 12 13 15 16 17 16 16 15 13 14 11 10 10 10 8 7 7 8 8 10 10 9 10 10 9 9 9 8 8 8 7 7 7 7 7 6 6 5 6 6 6 6 6 6 5 4 4 5 6 6 6 6 7 8
17 15 14 12 10 10 10 11 13 13 11 10 9 9 8 13 4 11 15 7 8 9 11 11 8 2 4 8 11 12 12 13 13 13 14 14 14 14 13 12 11 12 13 13 13 15 16 15 16 19 18 14 12 12 12 14 10 11 6 7 8 7 6 4 8 8 9 9 8 9 8 8 8 7 7 7 8 8 7 7 6 6 6 6 6 6 6 5 4 5 5 6 6 6 7 7 7
13 14 11 12 11 5 8 3 8 11 10 9 12 8 5 8 3 4 3 9 9 8 8 7 8 7 8 9 11 13 13 14 14 14 14 14 13 13 12 12 12 12 13 14 16 16 14 16 18 21 18 14 15 15 15 16 12 11 13 11 10 9 9 9 6 5 8 9 9 9 9 8 7 7 8 8 8 8 8 8 7 7 7 6 6 6 5 5 5 5 6 6 6 4 7 8 7
15 14 16 14 7 4 3 4 9 3 4 7 5 9 3 3 6 8 10 9 9 11 12 11 9 10 11 11 12 13 13 14 14 14 13 14 14 14 14 13 11 12 13 14 16 16 16 18 17 17 17 18 21 19 18 16 14 12 11 10 9 9 9 11 10 11 10 9 8 9 9 8 8 8 8 8 8 8 8 8 8 7 6 6 6 6 6 6 6 5 6 6 6 6 7 7 6
11 14 13 10 2 4 6 7 5 6 7 4 11 13 10 8 5 12 14 13 11 11 11 11 10 11 12 11 12 13 14 14 14 13 13 13 14 14 13 10 12 14 15 16 14 16 18 17 18 17 21 23 19 19 17 17 16 15 15 14 13 12 12 11 10 11 10 11 9 8 8 9 8 8 8 9 9 9 9 8 7 7 6 6 7 6 6 6 6 6 6 6 6 6 7 6 6
11 11 10 11 10 7 8 4 10 10 9 6 7 11 11 11 7 6 13 14 14 13 11 11 11 12 13 12 13 13 13 12 13 13 12 13 13 13 13 12 12 14 16 18 16 16 18 18 19 18 20 20 18 13 15 14 15 12 13 13 13 11 10 10 9 10 10 12 12 10 10 9 9 9 9 10 10 10 9 8 8 7 7 7 7 7 6 6 6 6 6 5 5 6 6 7 6
9 11 9 11 6 9 9 5 5 8 7 6 6 12 7 11 10 7 8 13 13 14 12 12 13 14 12 11 12 13 13 12 12 12 12 12 12 13 14 14 15 15 17 16 16 13 18 19 18 15 15 16 16 16 15 15 15 12 13 12 12 11 12 12 12 12 11 12 12 11 10 10 10 9 10 10 10 10 9 9 8 8 7 7 7 6 6 6 6 6 5 6 6 7 8 7 7
12 13 11 12 6 7 7 7 6 7 6 7 4 5 8 8 9 10 6 8 12 12 11 10 10 10 11 11 12 12 12 11 11 11 11 12 12 13 12 13 13 15 15 15 15 14 16 15 16 16 17 14 16 14 14 14 14 13 13 13 12 12 13 12 13 13 13 13 12 11 10 10 10 10 10 10 10 10 10 9 9 8 8 7 7 7 6 6 6 6 6 7 7 8 8 7 7
12 11 12 12 12 11 12 10 7 6 7 5 6 5 2 8 8 9 12 6 5 8 7 7 8 11 11 10 11 11 10 11 11 11 11 12 13 13 13 12 12 14 15 17 15 9 6 8 11 15 14 15 16 17 14 14 12 11 14 14 14 12 13 12 13 13 11 13 12 11 11 11 10 10 10 10 11 10 9 10 9 9 8 8 8 7 7 6 7 7 7 5 7 8 8 8 7
Wind_Direction
296 313 314 281 259 251 276 246 278 165 236 238 251 220 102 179 355 267 51 12 28 39 3 354 310 229 326 6 355 13 37 48 13 335 70 81 183 153 143 144 144 142 140 144 144 149 155 152 161 162 161 161 160 159 156 153 150 148 144 141 138 136 134 132 130 127 125 123 123 126 125 118 118 118 119 119 121 112 103 101 103 103 98 95 91 88 88 90 91 92 92 92 90 86 86 89 90
321 317 287 263 262 278 215 342 279 273 239 247 223 231 83 123 225 50 26 23 23 9 349 4 17 56 4 13 350 256 79 40 4 52 78 95 111 139 131 152 148 144 141 143 148 158 161 157 160 162 162 160 160 161 158 153 153 150 146 143 139 138 136 134 131 129 125 124 125 126 125 118 117 121 122 120 115 107 104 103 102 100 97 93 90 90 88 89 89 89 92 93 90 88 85 86 90
317 312 283 230 244 274 310 245 265 255 256 246 210 156 102 219 91 54 22 12 5 359 346 19 337 215 208 233 205 337 93 80 106 76 81 133 137 139 147 149 149 142 141 142 149 160 161 161 158 161 163 160 158 162 158 154 152 151 147 143 141 140 138 135 132 128 126 125 125 126 126 120 121 124 124 120 114 109 107 104 101 97 93 90 89 89 89 90 90 91 90 91 91 89 86 84 84
292 279 297 290 259 211 265 237 255 264 256 254 264 115 203 310 57 9 2 16 349 330 349 346 307 106 297 236 23 264 136 140 42 87 137 173 65 145 145 148 148 143 141 146 151 160 164 153 158 156 163 158 157 161 158 153 152 153 147 143 142 140 137 134 132 130 128 127 127 124 119 119 120 127 126 117 114 111 107 106 102 97 92 88 87 86 87 87 89 89 90 92 91 89 85 81 75
285 262 266 274 285 254 243 261 276 264 249 251 246 112 193 186 2 352 347 343 334 330 332 344 277 128 330 301 346 289 83 87 106 39 83 97 104 136 144 146 147 147 145 148 154 157 156 148 152 158 159 158 155 160 156 151 152 152 146 144 143 138 136 135 134 132 131 129 128 127 123 121 129 122 124 119 115 112 106 105 105 101 99 95 91 89 85 83 82 82 83 86 88 87 86 79 68
257 255 209 255 270 12 269 250 234 244 259 274 266 294 73 322 337 356 328 322 329 336 14 299 344 339 241 106 28 314 32 265 67 106 111 117 131 138 143 144 147 147 146 150 150 157 160 143 153 152 157 159 154 158 155 152 150 149 147 147 142 140 138 137 136 135 133 131 131 127 124 124 123 118 122 117 118 115 110 108 108 105 101 100 96 93 90 88 86 81 80 81 84 84 83 77 72
256 224 200 218 206 229 258 253 252 249 239 239 255 277 292 344 359 325 316 322 322 330 114 352 307 291 243 117 160 67 55 58 256 72 68 126 129 139 146 145 144 144 145 146 154 157 147 139 148 152 157 158 153 156 154 151 148 149 152 149 145 143 140 139 137 134 132 132 131 128 125 124 128 119 118 115 114 110 108 108 105 102 98 96 94 90 87 87 85 83 81 80 79 81 80 80 75
269 263 192 243 247 190 239 249 255 252 248 245 271 281 292 306 330 305 313 309 334 315 323 338 304 300 314 190 289 97 91 28 37 80 110 130 135 140 152 148 143 143 145 147 150 151 125 141 147 153 159 158 154 155 154 150 148 150 151 148 147 144 144 142 138 135 133 135 134 133 128 124 128 131 121 121 119 118 122 115 108 98 98 95 93 91 88 86 83 82 82 84 81 78 77 77 79
204 240 117 263 255 236 248 251 254 246 258 258 249 266 286 288 292 299 292 299 295 291 295 320 335 296 78 277 46 128 94 78 96 110 126 131 138 147 154 154 146 143 145 148 147 134 140 140 151 155 158 160 157 154 154 152 150 149 149 148 146 145 145 142 138 135 136 134 137 133 131 131 130 129 126 120 122 123 127 118 111 104 94 95 94 93 92 88 87 85 83 83 80 72 72 72 67
206 230 209 238 255 250 242 243 244 246 248 234 256 255 245 250 269 275 288 284 289 300 304 333 299 279 302 291 221 143 92 102 119 123 128 136 140 148 151 150 146 142 143 147 146 149 152 146 150 156 159 158 157 153 153 151 151 148 145 141 138 143 143 140 135 136 135 132 131 136 133 132 133 133 134 127 124 117 127 122 114 102 95 90 90 92 91 87 83 83 81 81 80 71 61 55 25
218 199 265 249 237 245 247 251 246 244 244 243 242 239 263 265 275 277 275 280 287 284 298 301 279 275 280 274 19 79 104 123 134 131 137 138 142 150 146 144 144 142 143 148 151 152 150 158 153 156 160 157 153 150 147 149 146 141 136 133 136 140 142 134 135 130 129 132 134 134 136 137 138 139 137 138 135 130 129 123 123 117 104 93 88 84 83 80 75 72 72 74 75 85 77 62 345
231 205 193 237 244 246 243 249 250 254 251 231 229 239 227 249 251 266 266 267 262 255 270 237 293 342 278 278 122 116 107 126 128 132 145 149 153 152 146 145 148 145 143 150 152 152 157 160 162 157 158 154 149 145 146 145 142 139 137 135 138 138 134 130 127 127 125 128 125 126 130 130 145 144 140 136 136 135 141 140 134 138 120 96 87 77 70 64 59 51 52 57 49 50 86 129 296
234 217 222 237 243 243 250 251 249 256 258 248 223 228 216 222 247 257 265 271 274 275 262 237 274 262 268 272 84 130 141 144 138 148 154 160 151 153 150 147 150 146 148 157 154 156 160 162 164 164 154 151 146 146 144 140 138 138 136 134 130 127 129 128 129 131 124 125 125 124 126 129 128 134 119 122 146 145 151 150 155 151 136 112 89 67 57 38 29 28 27 25 27 359 335 5 292
226 231 235 243 242 249 247 247 248 248 247 250 237 188 189 238 246 260 276 269 263 253 291 301 259 262 263 269 167 166 155 156 146 155 157 160 152 153 151 147 152 152 155 161 158 158 163 165 164 166 155 166 158 154 149 141 139 138 135 129 127 134 130 132 129 124 121 121 121 123 126 130 126 129 133 143 146 153 150 163 138 133 137 130 114 61 26 14 16 13 9 356 339 336 340 333 334
225 228 238 248 249 245 237 245 242 247 253 253 259 169 204 231 258 256 258 267 267 272 83 257 262 228 290 244 198 136 151 148 150 156 161 156 157 154 152 149 152 155 159 163 162 159 166 167 165 164 162 170 162 167 162 149 144 139 137 127 129 131 134 128 125 123 125 125 126 128 129 129 125 126 136 139 142 160 163 154 136 144 158 207 199 1 60 31 345 347 347 328 323 337 328 323 307
224 223 230 243 240 243 232 235 238 252 252 253 235 186 226 234 230 247 244 252 288 115 225 215 200 264 335 302 18 97 130 144 152 156 157 155 159 155 156 150 153 155 158 163 166 165 166 172 165 168 168 171 167 171 162 156 145 141 135 127 130 137 139 131 129 129 129 132 132 136 139 135 142 133 141 136 133 141 173 168 139 158 183 172 162 149 147 284 316 329 322 321 326 313 305 287 268
214 229 230 232 242 232 235 236 230 237 253 254 204 192 215 237 214 235 91 226 253 231 201 246 206 328 300 347 32 113 128 139 151 155 159 160 165 162 160 155 155 157 160 169 174 173 170 173 167 170 171 172 169 167 162 159 142 142 135 129 137 140 140 138 131 133 135 131 135 137 203 141 120 125 166 123 169 137 119 142 166 159 185 182 181 172 304 312 315 315 321 318 300 295 279 263 251
190 213 228 234 233 236 234 236 231 244 253 252 242 221 220 244 194 213 196 223 236 218 217 157 197 238 2 46 104 118 129 150 160 162 166 167 172 165 164 162 165 162 164 170 177 177 174 174 174 172 171 173 169 166 163 154 147 161 150 145 147 148 147 143 152 142 146 132 144 176 143 133 134 126 121 133 120 146 148 156 175 185 185 193 212 230 292 292 289 315 300 286 293 270 261 254 199
198 216 223 236 229 237 243 233 232 230 236 257 268 142 232 250 214 180 222 224 219 219 204 187 194 196 149 138 129 136 147 161 167 173 172 174 176 168 169 163 169 161 166 174 175 179 178 174 177 174 172 171 168 168 160 158 154 164 154 155 145 159 152 163 149 154 148 150 157 136 142 138 141 133 132 97 105 70 117 171 174 191 196 196 217 213 213 228 258 247 260 265 253 248 242 256 288
213 220 224 232 234 242 234 227 222 227 250 255 261 241 214 252 219 169 233 251 222 232 222 187 215 208 195 166 157 154 165 172 176 178 180 180 180 170 167 169 168 163 170 178 174 178 178 179 178 173 172 169 171 171 160 163 155 163 154 156 157 156 161 160 152 158 151 148 147 146 144 144 147 137 110 150 159 158 146 174 186 186 194 199 216 217 193 196 226 221 219 234 234 241 334 332 338
199 226 231 232 222 233 223 218 216 237 225 249 261 220 228 201 209 205 234 242 232 238 239 241 208 203 187 173 171 167 176 177 182 184 183 187 181 178 177 176 172 166 181 176 176 179 182 178 176 173 172 172 174 171 162 164 156 164 158 164 162 160 164 156 157 159 153 154 153 159 144 155 149 147 158 170 178 161 151 154 176 188 170 162 196 205 203 149 210 236 200 216 339 329 341 351 325
212 222 230 233 229 231 207 211 209 211 219 238 237 222 240 186 205 217 226 232 238 235 180 187 225 196 181 176 179 176 182 182 185 188 188 187 189 177 180 176 177 173 177 184 180 171 184 179 178 172 170 175 177 172 170 158 160 166 159 167 164 161 157 161 159 161 157 161 159 153 149 163 171 159 170 173 161 162 153 138 160 141 146 129 181 314 39 344 347 0 340 338 340 347 334 350 335
227 216 228 230 235 221 199 200 204 203 204 221 229 232 234 190 219 219 224 231 242 55 75 228 255 226 186 177 171 179 184 190 190 191 189 189 190 185 182 185 182 178 181 187 180 172 180 180 178 173 171 174 177 176 166 162 170 164 158 167 168 161 162 165 166 162 160 159 159 162 169 169 173 164 167 168 165 161 140 159 140 141 163 126 91 34 15 18 349 354 343 352 335 333 336 329 322
227 224 206 218 203 214 203 216 193 203 217 223 231 239 228 221 235 216 227 225 248 71 344 268 271 228 168 174 174 179 185 191 194 194 192 191 190 183 185 181 182 184 181 187 177 171 179 180 178 177 176 175 177 176 170 170 165 160 155 157 182 157 166 173 164 163 155 166 168 170 179 178 172 165 172 168 160 151 130 124 124 144 107 62 44 351 14 14 358 351 354 332 330 333 333 331 334
216 231 210 207 207 213 215 217 211 205 216 226 228 228 225 233 238 229 222 231 234 218 247 253 251 188 177 180 175 180 188 191 194 194 194 193 189 185 189 188 184 187 186 178 177 173 176 178 178 179 177 179 177 175 175 173 162 161 158 168 176 162 176 173 164 156 171 163 169 171 180 189 175 176 168 156 162 135 133 141 139 81 41 35 17 25 8 3 359 355 346 333 330 330 320 329 329
218 220 208 210 207 210 207 202 205 205 214 223 226 233 239 237 234 246 239 230 235 248 251 245 219 185 185 184 179 182 188 191 192 193 193 195 184 187 192 194 178 186 188 181 178 177 175 175 179 180 178 179 177 178 177 169 165 167 162 170 162 172 176 173 162 172 169 172 170 180 180 192 193 172 164 163 147 129 127 132 132 64 43 35 10 24 17 9 353 3 348 342 332 328 329 345 323
196 214 214 210 203 209 209 210 200 197 216 209 226 231 233 230 219 236 228 239 226 234 241 226 209 197 188 186 179 184 192 193 195 191 193 195 186 193 191 193 187 190 186 179 186 175 173 176 178 179 179 181 178 180 178 167 165 167 160 171 166 181 163 170 180 172 173 185 168 171 186 195 195 180 170 160 139 140 142 155 93 69 52 40 14 31 30 8 359 2 1 346 337 332 333 338 335
181 203 210 214 212 211 209 212 216 205 214 212 221 232 232 223 209 235 237 206 211 228 229 218 215 208 191 185 181 183 193 194 195 196 196 193 194 193 193 194 186 187 181 181 182 176 173 179 178 182 178 181 180 178 172 170 168 166 166 175 171 171 164 177 182 176 182 178 164 172 184 188 184 164 162 160 146 145 137 114 75 44 39 29 23 13 15 359 347 357 0 339 325 315 331 350 326
195 193 204 207 214 213 198 204 208 210 217 205 212 242 233 216 220 216 227 160 203 215 220 216 212 207 191 183 183 186 192 193 196 199 199 198 197 193 195 193 185 185 186 181 174 165 169 180 178 181 180 179 185 177 176 174 170 170 171 173 169 164 174 184 181 180 177 170 159 178 183 184 184 164 159 168 152 137 132 114 87 59 52 26 28 8 349 338 345 357 4 325 338 326 327 357 323
198 199 213 202 213 222 206 203 199 195 212 193 193 228 226 222 219 212 217 203 204 212 215 211 207 205 192 186 186 187 190 192 197 199 196 197 199 194 196 189 186 187 181 179 170 172 168 178 178 178 183 178 183 178 174 176 174 172 174 166 164 172 180 185 182 173 179 172 162 176 190 183 181 166 161 153 193 151 132 103 83 74 43 20 38 356 343 6 353 359 358 335 348 323 346 358 334
204 196 211 217 203 217 202 200 193 199 185 187 193 230 235 220 209 206 194 205 206 214 215 212 207 203 196 189 186 189 191 195 195 197 195 196 196 194 196 187 185 189 173 168 168 168 171 172 174 177 183 176 177 177 174 176 172 171 173 167 165 186 180 185 179 175 182 176 172 170 186 187 183 171 160 160 171 141 137 103 51 47 26 11 10 27 331 3 14 358 17 346 338 341 353 344 356
193 187 208 213 219 207 197 196 196 198 180 191 194 234 237 228 199 186 185 197 207 217 216 212 208 203 196 189 188 188 186 190 194 196 197 195 198 194 194 189 187 187 171 164 164 165 171 172 176 176 180 177 178 175 174 174 171 173 174 169 166 188 180 183 177 180 180 177 172 173 181 195 188 170 160 155 167 146 107 95 65 39 10 19 13 5 334 5 28 0 16 356 343 343 350 359 352
198 207 200 204 204 200 172 191 197 202 188 194 207 225 213 229 175 176 193 200 203 218 221 214 211 204 194 191 190 189 180 186 191 197 195 197 197 195 190 187 188 181 171 165 166 169 170 171 178 175 180 177 176 175 176 178 171 181 177 172 174 181 184 176 181 179 183 182 176 178 178 190 190 166 156 159 161 109 101 81 74 35 13 15 5 349 1 15 29 10 13 6 346 335 345 8 345
198 200 212 201 198 191 193 168 199 197 204 195 206 231 234 208 181 174 184 200 205 218 223 217 212 209 193 193 188 189 192 187 191 192 194 196 191 198 192 191 190 188 176 174 176 170 170 172 178 177 174 179 176 175 176 176 181 183 178 172 170 175 180 181 180 188 186 180 176 178 182 191 196 163 158 157 140 119 97 96 75 31 20 11 14 345 32 25 27 19 6 11 355 338 349 355 351
186 186 203 197 198 203 189 162 180 194 201 214 201 219 229 211 169 196 185 186 202 213 217 218 211 209 196 195 193 194 193 194 189 185 188 191 193 191 198 194 196 194 193 190 180 181 179 174 162 180 177 177 177 176 180 185 183 182 171 165 165 168 171 176 182 200 196 182 181 174 187 191 196 161 157 144 145 147 117 85 56 33 11 10 29 344 24 45 28 21 14 360 355 354 340 350 343
193 186 193 190 186 194 209 185 168 189 191 207 207 210 220 226 219 188 192 198 204 212 214 214 213 211 204 201 201 200 196 190 180 174 180 185 193 189 192 188 194 193 192 190 186 183 180 174 159 168 179 175 174 175 184 186 183 175 169 166 166 173 175 176 189 202 196 195 172 181 189 196 174 161 151 134 133 122 119 73 69 12 31 11 32 22 13 29 20 16 14 360 353 345 32 344 349
191 187 190 185 195 195 202 204 171 189 193 204 207 212 220 224 221 208 190 192 209 215 214 214 212 209 206 206 211 206 194 181 160 169 168 183 189 186 185 192 193 192 191 189 187 188 178 176 174 172 176 175 175 182 185 183 179 177 171 173 169 173 177 176 182 195 197 186 178 183 191 185 164 155 148 146 131 121 81 75 45 41 18 53 35 38 33 30 22 12 352 2 360 354 22 350 352
178 181 188 191 202 208 194 200 170 189 205 198 209 210 220 225 218 209 197 193 203 210 213 214 214 211 211 213 214 210 181 153 164 165 167 176 188 187 189 196 196 193 187 184 187 184 182 172 179 171 174 176 181 185 181 181 182 182 176 176 170 175 177 178 176 192 188 170 188 185 185 179 149 156 147 137 130 110 94 76 44 49 37 55 50 48 43 37 25 14 358 342 47 9 16 359 4
181 189 188 198 196 210 169 193 169 184 203 209 197 215 218 220 221 203 204 199 204 208 215 214 213 211 214 216 216 205 180 173 171 164 171 183 185 190 191 199 198 200 183 184 185 184 183 179 180 176 178 179 182 184 182 179 174 167 174 163 170 175 183 182 177 182 172 172 179 186 180 162 149 151 145 135 116 85 71 52 57 61 44 39 54 52 46 38 25 13 6 4 329 62 38 30 16
190 190 186 199 186 193 171 199 183 185 200 206 193 213 220 219 221 209 201 200 207 213 217 222 220 216 214 214 210 201 193 185 178 175 181 189 191 193 195 197 199 196 186 187 183 181 180 183 181 179 177 182 178 178 181 166 166 154 168 163 169 177 170 163 160 168 172 170 175 180 164 157 147 158 146 138 111 88 64 69 81 67 66 49 52 49 41 35 44 13 12 20 327 8 52 50 29
199 203 196 196 189 192 202 170 183 184 201 244 203 210 221 212 186 193 196 209 216 212 216 222 223 232 229 221 212 207 203 194 187 180 180 187 196 199 198 199 196 196 193 187 180 181 182 183 180 179 177 181 176 163 172 164 153 158 164 162 164 160 148 165 170 178 173 169 167 171 158 152 154 154 142 129 103 100 85 75 73 84 70 64 58 63 51 38 8 29 20 29 10 349 51 53 54
196 205 204 201 183 185 214 158 173 181 196 206 206 204 219 202 202 205 196 197 208 204 211 214 218 219 219 222 221 212 204 200 195 186 185 185 198 203 200 196 200 199 195 185 182 181 182 179 175 173 173 171 166 161 160 157 162 169 164 160 164 172 163 174 183 178 170 172 172 153 142 161 157 149 142 117 92 96 98 93 83 91 94 81 65 50 52 47 43 31 26 14 33 21 356 45 67
192 188 206 203 178 183 163 163 178 190 204 188 210 223 210 200 206 201 197 193 201 199 208 215 217 222 218 221 222 218 207 193 190 190 191 187 196 204 204 203 204 202 196 179 185 187 182 176 168 164 168 163 160 159 157 151 161 170 172 175 177 176 165 180 181 174 168 162 154 154 151 167 155 146 122 106 108 102 101 91 90 87 93 96 76 62 58 51 49 35 25 29 21 30 11 52 25
199 171 190 190 182 189 183 181 198 206 199 168 194 218 240 199 203 197 190 188 199 199 203 216 218 217 219 219 219 217 207 193 186 192 196 193 196 206 208 204 204 204 189 180 189 187 175 159 159 156 162 169 165 160 169 168 169 177 186 189 181 178 164 173 172 166 153 147 145 156 161 156 152 132 125 120 116 109 99 100 99 94 93 81 81 70 62 55 68 66 46 40 39 37 31 36 48
182 163 182 188 193 191 190 199 199 216 167 188 197 206 232 242 156 181 179 195 201 201 205 212 215 216 217 219 218 214 205 194 190 189 195 194 198 208 211 209 207 203 192 189 190 184 156 132 124 167 178 173 168 159 164 163 165 185 194 187 176 165 165 158 149 147 158 160 156 168 166 147 135 124 127 126 115 102 111 105 105 107 93 86 77 86 75 73 62 58 55 54 51 50 43 39 47
148 151 168 178 186 191 193 201 211 198 201 215 192 193 218 221 167 180 178 203 200 206 208 210 211 211 211 212 211 208 200 195 194 194 195 195 199 211 214 215 210 206 200 185 184 144 99 82 120 171 178 180 168 158 164 167 180 176 181 191 174 160 147 153 167 156 165 169 164 167 157 154 144 142 137 126 118 112 107 111 109 104 94 74 72 77 89 81 74 71 61 62 65 67 58 53 47
136 161 158 156 164 178 190 216 213 197 222 221 195 190 211 220 202 185 182 200 205 202 205 207 206 206 207 208 207 201 194 190 192 193 196 199 197 210 215 217 212 201 201 179 172 121 115 121 163 171 172 153 157 155 150 165 185 194 181 191 164 146 153 168 170 163 175 173 169 165 166 156 149 145 139 125 120 114 118 113 112 102 93 95 87 92 82 79 84 88 85 78 66 61 71 73 69
165 166 170 158 166 176 181 199 224 222 222 213 206 194 201 231 202 191 192 205 209 208 205 201 201 205 208 205 205 200 193 192 190 193 195 197 197 208 213 215 209 195 184 182 119 104 137 167 168 174 166 165 162 161 160 158 183 183 173 189 163 161 159 175 181 179 179 176 172 168 161 154 149 146 142 133 131 130 121 117 125 118 103 91 89 82 83 86 86 82 82 79 79 75 72 70 65
191 177 175 175 162 170 187 190 200 214 216 197 197 188 201 222 231 137 199 205 199 205 210 200 204 208 207 205 199 193 191 190 189 189 192 194 200 207 212 212 206 191 181 171 127 144 166 166 178 176 161 162 148 156 167 163 176 183 181 170 178 175 181 175 184 189 177 178 173 167 164 156 151 150 147 143 139 142 134 138 132 120 107 95 95 93 87 85 85 85 87 83 75 71 66 64 67
195 188 181 182 172 180 191 193 198 198 212 65 185 186 226 213 235 233 213 205 205 200 211 220 213 210 208 207 193 186 187 189 189 189 190 194 200 207 211 208 201 183 171 156 140 160 164 169 167 161 164 168 163 152 174 170 178 190 185 164 178 191 193 183 184 182 188 181 170 169 169 155 151 149 146 144 145 142 135 126 120 104 98 104 100 93 90 86 91 96 89 86 84 79 79 76 73
193 195 192 195 183 184 180 189 188 195 188 163 189 185 218 207 171 207 218 201 183 193 202 206 213 183 175 181 180 183 183 189 191 192 193 195 201 206 208 203 192 177 168 145 148 156 159 164 164 164 173 172 146 166 179 180 171 178 174 152 175 197 162 210 195 185 184 180 171 167 163 154 148 148 143 137 144 139 133 132 126 120 108 104 104 103 100 100 100 98 91 85 81 79 80 78 76
193 201 205 214 204 161 201 186 199 186 172 164 182 204 187 205 99 106 176 210 211 191 194 193 195 191 182 181 180 183 188 190 192 194 195 196 197 202 203 197 182 167 161 145 149 151 154 164 166 162 164 176 159 176 187 180 176 166 157 181 179 179 175 185 204 178 183 179 165 163 161 152 145 138 137 142 140 141 136 133 130 116 114 111 110 110 112 109 106 101 97 95 94 92 91 91 91
178 194 204 203 203 191 136 82 37 69 179 198 156 211 214 204 243 222 196 191 198 201 207 207 204 192 188 193 188 187 187 191 190 192 192 192 193 197 201 194 175 163 160 146 152 157 163 166 160 149 161 167 173 180 183 177 171 167 169 162 165 183 182 184 176 184 181 171 165 161 160 148 139 140 141 141 142 140 141 135 124 121 116 114 111 109 109 108 107 102 100 99 94 91 87 82 79
168 203 192 181 236 222 176 172 143 194 189 182 175 198 202 205 225 187 197 205 202 195 195 197 190 184 192 195 190 185 187 189 188 189 190 193 194 194 195 184 170 164 162 146 146 163 167 160 152 156 167 173 179 180 179 180 171 169 170 173 176 180 183 188 187 177 171 165 166 166 154 149 145 142 142 145 145 142 138 134 125 123 120 116 115 113 111 111 109 102 102 98 95 98 96 90 82
203 193 152 176 168 188 195 198 175 188 203 182 181 205 216 209 199 148 195 200 201 199 190 180 183 190 195 191 187 184 183 182 183 185 187 191 192 193 189 177 171 167 159 150 157 166 165 158 166 173 175 172 171 173 178 178 175 173 176 174 178 181 178 175 183 171 171 167 167 166 161 149 143 143 146 149 147 144 143 136 132 127 125 123 117 116 120 116 115 112 109 106 104 99 95 93 90
232 199 183 205 202 206 175 201 165 194 199 217 190 188 214 199 216 193 180 199 196 197 184 193 197 193 187 182 181 181 180 180 181 184 189 190 190 189 186 176 173 164 159 151 160 163 167 169 173 177 172 170 166 169 171 174 174 174 172 169 178 177 173 175 178 173 171 173 169 163 159 147 146 146 150 152 149 148 142 139 137 131 129 125 124 123 120 120 119 112 111 106 107 106 102 102 102
190 201 184 189 228 192 214 186 227 192 203 196 198 189 211 203 207 219 208 170 193 188 188 198 202 183 178 175 176 178 175 175 179 182 187 189 188 186 179 175 171 161 158 150 159 162 172 174 173 175 175 170 167 159 166 170 171 171 173 176 184 180 174 175 176 174 173 171 170 162 160 149 149 148 153 154 151 148 143 141 140 137 131 127 125 124 125 125 118 113 106 109 113 111 109 107 108
195 192 192 183 186 176 192 185 204 233 210 200 205 221 181 190 186 208 219 204 144 165 184 183 180 171 168 166 171 170 168 174 179 182 185 188 187 180 174 177 168 165 159 154 151 123 169 190 166 171 175 173 165 162 166 165 167 170 174 180 178 169 173 171 170 173 168 173 168 163 160 151 150 150 157 156 152 148 144 145 141 136 131 127 128 126 130 125 120 119 116 115 115 115 115 114 111